| time (UTC) | temp F | wind direction | speed knots | gust knots | rain 1hr in | rain 24hr in | rain mn in | humidity % | barometer mb |
| 20260906091608 | 69 | 226 | 0.0 | 0.0 | 0.00 | 0.64 | 0.01 | 97 | 1011.0 |
| 20260906090059 | 69 | 226 | 0.0 | 0.0 | 0.00 | 0.64 | 0.01 | 97 | 1011.0 |
| 20260906084559 | 69 | 226 | 0.0 | 0.0 | 0.00 | 0.64 | 0.01 | 96 | 1011.0 |
| 20260906083059 | 69 | 226 | 0.0 | 0.0 | 0.00 | 0.64 | 0.01 | 96 | 1010.8 |
| 20260906081600 | 69 | 226 | 0.0 | 0.0 | 0.00 | 0.64 | 0.01 | 96 | 1010.6 |
| 20260906080058 | 69 | 226 | 0.0 | 0.0 | 0.00 | 0.64 | 0.01 | 96 | 1010.7 |
| 20260906074556 | 69 | 226 | 0.0 | 0.0 | 0.00 | 0.64 | 0.01 | 96 | 1010.6 |
| 20260906073055 | 70 | 226 | 0.0 | 0.0 | 0.00 | 0.64 | 0.01 | 96 | 1010.7 |
| 20260906071555 | 70 | 226 | 0.0 | 0.0 | 0.01 | 0.64 | 0.01 | 96 | 1010.7 |
| 20260906070054 | 70 | 226 | 0.0 | 0.0 | 0.01 | 0.64 | 0.01 | 96 | 1010.6 |
| 20260906064552 | 70 | 226 | 0.0 | 0.0 | 0.01 | 0.64 | 0.01 | 97 | 1010.6 |
| 20260906063050 | 70 | 226 | 0.0 | 0.0 | 0.01 | 0.64 | 0.01 | 97 | 1011.0 |
| 20260906061550 | 70 | 226 | 0.0 | 0.0 | 0.00 | 0.63 | 0.00 | 96 | 1011.0 |
| 20260906060048 | 70 | 226 | 0.0 | 0.0 | 0.00 | 0.63 | 0.00 | 96 | 1011.3 |
| 20260906054545 | 70 | 226 | 0.0 | 0.0 | 0.00 | 0.63 | 0.00 | 96 | 1011.5 |
| 20260906053045 | 70 | 226 | 0.0 | 0.0 | 0.00 | 0.63 | 0.00 | 96 | 1011.6 |
| 20260906051543 | 70 | 226 | 0.0 | 0.0 | 0.00 | 0.63 | 0.00 | 96 | 1011.7 |
| 20260906050045 | 70 | 226 | 0.0 | 0.0 | 0.00 | 0.63 | 0.00 | 96 | 1011.8 |
| 20260906044544 | 70 | 226 | 0.0 | 0.0 | 0.00 | 0.63 | 0.00 | 96 | 1011.9 |
| 20260906043045 | 71 | 226 | 0.0 | 0.0 | 0.00 | 0.63 | 0.00 | 96 | 1011.8 |
| 20260906041541 | 71 | 226 | 0.0 | 0.0 | 0.00 | 0.63 | 0.00 | 96 | 1012.0 |
| 20260906040038 | 71 | 226 | 0.0 | 0.0 | 0.00 | 0.63 | 0.00 | 96 | 1012.1 |
| 20260906034543 | 71 | 226 | 0.0 | 0.0 | 0.00 | 0.63 | 0.63 | 96 | 1012.2 |
| 20260906033036 | 71 | 226 | 0.0 | 0.0 | 0.00 | 0.63 | 0.63 | 96 | 1012.3 |
| 20260906031546 | 71 | 226 | 0.0 | 0.0 | 0.00 | 0.63 | 0.63 | 96 | 1012.6 |
| 20260906030034 | 71 | 226 | 0.0 | 0.0 | 0.00 | 0.63 | 0.63 | 96 | 1012.4 |
| 20260906024533 | 71 | 226 | 0.0 | 0.0 | 0.00 | 0.63 | 0.63 | 96 | 1012.4 |
| 20260906023033 | 72 | 226 | 0.0 | 0.0 | 0.00 | 0.63 | 0.63 | 95 | 1012.4 |
| 20260906021532 | 72 | 226 | 0.0 | 0.0 | 0.00 | 0.63 | 0.63 | 95 | 1012.0 |
| 20260906020045 | 72 | 226 | 0.0 | 0.0 | 0.00 | 0.63 | 0.63 | 95 | 1012.0 |
| 20260906014534 | 72 | 226 | 0.0 | 0.0 | 0.00 | 0.63 | 0.63 | 95 | 1011.7 |
| 20260906013029 | 72 | 226 | 0.0 | 0.0 | 0.00 | 0.63 | 0.63 | 95 | 1011.6 |
| 20260906011528 | 72 | 226 | 0.0 | 2.6 | 0.00 | 0.63 | 0.63 | 95 | 1011.4 |
| 20260906010028 | 72 | 226 | 0.0 | 0.9 | 0.01 | 0.63 | 0.63 | 95 | 1010.9 |
| 20260906004527 | 72 | 226 | 0.0 | 0.0 | 0.01 | 0.63 | 0.63 | 94 | 1010.9 |
| 20260906003029 | 72 | 227 | 0.0 | 0.9 | 0.01 | 0.63 | 0.63 | 94 | 1010.8 |
| 20260906001531 | 72 | 226 | 0.0 | 0.9 | 0.01 | 0.63 | 0.63 | 94 | 1011.0 |
| 20260906000026 | 73 | 226 | 0.0 | 0.9 | 0.00 | 0.62 | 0.62 | 94 | 1011.2 |
| 20260905234525 | 73 | 226 | 0.0 | 0.9 | 0.00 | 0.62 | 0.62 | 94 | 1011.6 |
| 20260905233031 | 72 | 226 | 0.0 | 0.0 | 0.00 | 0.62 | 0.62 | 93 | 1012.0 |
| 20260905231524 | 72 | 227 | 0.0 | 1.7 | 0.01 | 0.62 | 0.62 | 93 | 1011.8 |
| 20260905230024 | 73 | 226 | 0.9 | 2.6 | 0.20 | 0.62 | 0.62 | 92 | 1011.9 |
| 20260905224523 | 73 | 226 | 0.0 | 2.6 | 0.62 | 0.62 | 0.62 | 90 | 1010.9 |
| 20260905223034 | 73 | 226 | 0.0 | 0.9 | 0.62 | 0.62 | 0.62 | 88 | 1010.1 |
| 20260905221537 | 74 | 226 | 0.0 | 2.6 | 0.61 | 0.61 | 0.61 | 86 | 1010.2 |
| 20260905220022 | 76 | 163 | 1.7 | 11.3 | 0.38 | 0.38 | 0.38 | 80 | 1012.6 |
| 20260905214520 | 83 | 190 | 6.1 | 15.6 | 0.00 | 0.00 | 0.00 | 73 | 1013.0 |
| 20260905213021 | 92 | 63 | 5.2 | 18.2 | 0.00 | 0.00 | 0.00 | 62 | 1011.1 |
| 20260905211536 | 94 | 254 | 0.0 | 1.7 | 0.00 | 0.00 | 0.00 | 55 | 1009.3 |
| 20260905210019 | 97 | 254 | 0.0 | 2.6 | 0.00 | 0.00 | 0.00 | 50 | 1009.4 |
| 20260905204517 | 98 | 285 | 0.9 | 3.5 | 0.00 | 0.00 | 0.00 | 50 | 1009.3 |
| 20260905203015 | 97 | 231 | 0.9 | 3.5 | 0.00 | 0.00 | 0.00 | 48 | 1009.5 |
| 20260905201514 | 98 | 221 | 1.7 | 7.0 | 0.00 | 0.00 | 0.00 | 46 | 1009.7 |
| 20260905200015 | 97 | 255 | 0.9 | 6.1 | 0.00 | 0.00 | 0.00 | 51 | 1010.0 |
| 20260905194511 | 98 | 260 | 0.9 | 2.6 | 0.00 | 0.00 | 0.00 | 49 | 1009.8 |
| 20260905193236 | 97 | 260 | 1.7 | 6.1 | 0.00 | 0.00 | 0.00 | 50 | 1011.2 |
| 20260905193006 | 97 | 258 | 0.9 | 6.1 | 0.00 | 0.00 | 0.00 | 53 | 1010.1 |
| 20260905191544 | 97 | 233 | 1.7 | 6.1 | 0.00 | 0.00 | 0.00 | 49 | 1010.2 |
| 20260905190042 | 97 | 259 | 0.9 | 5.2 | 0.00 | 0.00 | 0.00 | 55 | 1010.3 |
| 20260905184539 | 96 | 274 | 1.7 | 6.1 | 0.00 | 0.00 | 0.00 | 51 | 1010.8 |
| 20260905183036 | 96 | 274 | 1.7 | 4.3 | 0.00 | 0.00 | 0.00 | 53 | 1011.0 |
| 20260905181534 | 95 | 256 | 0.9 | 6.1 | 0.00 | 0.00 | 0.00 | 55 | 1011.2 |
| 20260905180035 | 95 | 234 | 1.7 | 7.0 | 0.00 | 0.00 | 0.00 | 59 | 1011.5 |
| 20260905174529 | 94 | 250 | 0.9 | 4.3 | 0.00 | 0.00 | 0.00 | 62 | 1011.8 |
| 20260905173026 | 94 | 288 | 0.9 | 4.3 | 0.00 | 0.00 | 0.00 | 61 | 1011.9 |
| 20260905171538 | 93 | 228 | 2.6 | 7.0 | 0.00 | 0.00 | 0.00 | 62 | 1012.2 |
| 20260905170028 | 93 | 244 | 1.7 | 3.5 | 0.00 | 0.00 | 0.00 | 62 | 1012.5 |
| 20260905164518 | 93 | 287 | 1.7 | 7.0 | 0.00 | 0.00 | 0.00 | 62 | 1012.6 |
| 20260905163017 | 92 | 285 | 1.7 | 4.3 | 0.00 | 0.00 | 0.00 | 65 | 1012.9 |
| 20260905161511 | 91 | 233 | 0.9 | 5.2 | 0.00 | 0.00 | 0.00 | 66 | 1013.2 |
| 20260905160006 | 90 | 207 | 1.7 | 3.5 | 0.00 | 0.00 | 0.00 | 68 | 1013.4 |
| 20260905154504 | 89 | 186 | 0.9 | 7.8 | 0.00 | 0.00 | 0.00 | 69 | 1013.4 |
| 20260905153101 | 89 | 191 | 0.0 | 5.2 | 0.00 | 0.00 | 0.00 | 69 | 1013.6 |
| 20260905151559 | 88 | 272 | 1.7 | 5.2 | 0.00 | 0.00 | 0.00 | 72 | 1013.7 |
| 20260905150056 | 87 | 286 | 1.7 | 4.3 | 0.00 | 0.00 | 0.00 | 74 | 1013.8 |
| 20260905144554 | 85 | 342 | 0.0 | 4.3 | 0.00 | 0.00 | 0.00 | 80 | 1013.8 |
| 20260905143047 | 83 | 238 | 0.9 | 4.3 | 0.00 | 0.00 | 0.00 | 82 | 1014.0 |
| 20260905141544 | 82 | 238 | 0.0 | 4.3 | 0.00 | 0.00 | 0.00 | 86 | 1014.1 |
| 20260905140042 | 80 | 229 | 0.0 | 4.3 | 0.00 | 0.00 | 0.00 | 90 | 1014.1 |
| 20260905134543 | 79 | 277 | 1.7 | 3.5 | 0.00 | 0.00 | 0.00 | 93 | 1014.0 |
| 20260905133034 | 78 | 321 | 0.0 | 4.3 | 0.00 | 0.00 | 0.00 | 96 | 1014.2 |
| 20260905131533 | 77 | 321 | 0.0 | 2.6 | 0.00 | 0.00 | 0.00 | 97 | 1014.1 |
| 20260905130032 | 76 | 321 | 0.0 | 2.6 | 0.00 | 0.00 | 0.00 | 97 | 1014.3 |
| 20260905124539 | 75 | 321 | 0.0 | 1.7 | 0.00 | 0.00 | 0.00 | 97 | 1014.3 |
| 20260905123029 | 75 | 321 | 0.0 | 0.9 | 0.00 | 0.00 | 0.00 | 97 | 1014.2 |
| 20260905121526 | 74 | 321 | 0.0 | 0.9 | 0.00 | 0.00 | 0.00 | 97 | 1014.3 |
| 20260905120027 | 73 | 321 | 0.0 | 0.9 | 0.00 | 0.00 | 0.00 | 96 | 1014.1 |
| 20260905114521 | 72 | 321 | 0.0 | 0.0 | 0.00 | 0.00 | 0.00 | 95 | 1014.1 |
| 20260905113019 | 72 | 321 | 0.0 | 0.0 | 0.00 | 0.00 | 0.00 | 95 | 1013.9 |
| 20260905111519 | 72 | 321 | 0.0 | 0.0 | 0.00 | 0.00 | 0.00 | 95 | 1013.8 |
| 20260905110018 | 72 | 321 | 0.0 | 0.0 | 0.00 | 0.00 | 0.00 | 95 | 1013.6 |
| 20260905104617 | 73 | 321 | 0.0 | 0.0 | 0.00 | 0.00 | 0.00 | 95 | 1013.5 |
| 20260905103014 | 73 | 321 | 0.0 | 0.0 | 0.00 | 0.00 | 0.00 | 94 | 1013.4 |
| 20260905101513 | 73 | 321 | 0.0 | 0.0 | 0.00 | 0.00 | 0.00 | 94 | 1013.3 |
| 20260905100013 | 73 | 321 | 0.0 | 0.0 | 0.00 | 0.00 | 0.00 | 94 | 1013.2 |
| 20260905094510 | 73 | 321 | 0.0 | 0.0 | 0.00 | 0.00 | 0.00 | 94 | 1013.1 |
| 20260905093010 | 73 | 321 | 0.0 | 0.0 | 0.00 | 0.00 | 0.00 | 94 | 1013.3 |